Simultaneous Nadir Overpasses (SNOs) Predictions

Prediction of SNOs between NOAA-20 and LANDSAT-8 Satellite Orbit:

Table of predicted SNOs for the next 14.0 days since TLE Epoch: 9/24/2022
Index Date (NOAA-20) Time (NOAA-20) Lat,Lon (NOAA-20) SZA (NOAA-20 ) Date (LANDSAT-8) Time (LANDSAT-8) Lat,Lon (LANDSAT-8) SZA (LANDSAT-8 ) Distance(km) Time Diff (sec)
1 09/26/2022 15:06:11 -70.10, 129.73 108.60 09/26/2022 15:07:18 -70.09, 129.74 108.62 2.05 67
2 09/26/2022 15:56:55 69.98, -62.77 71.29 09/26/2022 15:56:45 69.98, -62.76 71.29 0.55 10
3 09/26/2022 16:47:31 -69.58, 105.14 109.11 09/26/2022 16:46:19 -69.65, 104.41 109.03 29.11 72
4 09/29/2022 07:23:06 -70.05,-114.43 107.61 09/29/2022 07:23:47 -70.07,-114.40 107.60 2.26 41
5 09/29/2022 08:13:50 69.93, 53.06 72.28 09/29/2022 08:13:15 69.91, 53.02 72.26 3.14 35
6 10/01/2022 22:49:30 70.68,-166.96 74.05 10/01/2022 22:50:39 70.53,-165.48 73.89 57.15 69
7 10/01/2022 23:40:01 -70.01, 1.40 106.62 10/01/2022 23:40:17 -69.99, 1.37 106.64 2.59 16
8 10/02/2022 00:30:45 69.89, 168.89 73.28 10/02/2022 00:29:44 69.88, 168.86 73.26 1.95 61
9 10/04/2022 15:06:14 70.06, -50.22 74.46 10/04/2022 15:07:16 70.05, -50.29 74.44 2.86 62
10 10/04/2022 15:56:56 -69.97, 117.23 105.63 10/04/2022 15:56:46 -69.95, 117.20 105.65 2.61 10
11 10/04/2022 16:47:31 69.37, -74.59 73.79 10/04/2022 16:46:21 69.39, -75.92 73.81 52.15 70
12 10/07/2022 07:23:08 70.03, 65.59 75.45 10/07/2022 07:23:43 70.05, 65.59 75.47 2.36 35
13 10/07/2022 08:13:50 -69.93,-126.94 104.64 10/07/2022 08:13:13 -69.95,-126.92 104.62 2.20 37



Historial Predications of SNOs between NOAA-20 and LANDSAT-8
